Location: Forst
(46.9333°N, 15.4333°E)
Time: 18:07:00
(UTC+00:00)

X-37B - Pass Details

Date: 28 September 2021
Orbit: 385 x 389 km, 45.0° (Epoch: 13 October)

Event Time Altitude Azimuth Distance (km) Brightness Sun altitude
Exits shadow 03:58:25 16° 263° (W) 1,118 2.2 -10.1°
Maximum altitude 04:00:49 59° 186° (S) 454 0.8 -9.7°
Drops below altitude 10° 04:03:57 10° 106° (ESE) 1,414 4.7 -9.2°
Sets 04:06:02 0° 102° (ESE) 2,269 6.1 -8.8°
